Regional Weather Roundup
Issued by NWS

Home | Current Version | Previous Version | Graphics & Text | Print | Product List | Glossary On
Versions: 1 2 3 4 5 6 7 8 9 10 11 12 13 14 15 16 17 18 19 20 21 22 23 24 25 26 27 28 29 30 31 32 33 34 35 36 37 38 39 40 41 42 43 44 45 46 47 48 49 50
000
ASUS44 KMEG 250300
RWRTN
TENNESSEE HOURLY STATE WEATHER ROUNDUP
NATIONAL WEATHER SERVICE MEMPHIS TN
1000 PM CDT SUN JUL 24 2016

TNZ002-004-019-021-049-052-054-088>092-250400-
WEST TENNESSEE

CITY           SKY/WX    TMP DP  RH WIND       PRES   REMARKS
MEMPHIS INTL   PTCLDY    83  73  72 S6        29.98R
NWS MEMPHIS      N/A     83 N/A N/A MISG        N/A
JACKSON        CLOUDY    78  77  96 S3        29.99R
DYERSBURG      CLOUDY    82  77  83 MISG      29.98S HX  91
$$

TNZ008-025-027-028-033-062-065-066-250400-
NORTH MIDDLE TENNESSEE

CITY           SKY/WX    TMP DP  RH WIND       PRES   REMARKS
NASHVILLE      MOCLDY    85  71  63 CALM      30.02R HX  90
CLARKSVILLE    CLOUDY    83  75  77 CALM      29.99S HX  90
CROSSVILLE     CLEAR     74  73  97 CALM      30.12R
$$

TNZ061-075-076-078-094-096-097-250400-
SOUTH MIDDLE TENNESSEE

CITY           SKY/WX    TMP DP  RH WIND       PRES   REMARKS
$$

TNZ017-018-042-046-047-250400-
NORTHEAST TENNESSEE

CITY           SKY/WX    TMP DP  RH WIND       PRES   REMARKS
TRI CITIES     PTCLDY    78  69  73 CALM      30.10R
$$

TNZ012-013-036-069-073-074-250400-
CENTRAL EAST TENNESSEE

CITY           SKY/WX    TMP DP  RH WIND       PRES   REMARKS
KNOXVILLE      PTCLDY    83  73  72 SW3       30.04R
OAK RIDGE      CLOUDY    83  73  72 CALM      30.06R
$$

TNZ083-085-099-250400-
SOUTHEAST TENNESSEE

CITY           SKY/WX    TMP DP  RH WIND       PRES   REMARKS
CHATTANOOGA    PTCLDY    79  74  84 CALM      30.05R
$$

SKY/WX REPORTED AS FAIR MEANS FEW OR NO CLOUDS BELOW
12 THOUSAND FEET.





USA.gov is the U.S. government's official web portal to all federal, state and local government web resources and services.